Huntsville Madison, AL

9:08 AM CDT on March 30, 2017 (GMT -0500)
Huntsville Madison

Weather History for KMDQ - November, 2012

Change the Weather History Date:

Thursday, November 8, 2012

  Actual Average (KHSV) Record (KHSV)
Temperature  
Mean Temperature 44 °F -  
Max Temperature 55 °F 64 °F 83 °F (2005)
Min Temperature 32 °F 42 °F 24 °F (1976)
Degree Days  
Heating Degree Days 22    
Moisture  
Dew Point 34 °F    
Average Humidity 78    
Maximum Humidity 100    
Minimum Humidity 41    
Precipitation  
Precipitation 0.00 in - - ()
Sea Level Pressure  
Sea Level Pressure 30.20 in    
Wind  
Wind Speed 2 mph (NNW)    
Max Wind Speed 8 mph    
Max Gust Speed -    
Visibility 6 miles    
Events Fog    
Averages and records for this station are not official NWS values.
T = Trace of Precipitation, MM = Missing Value Source: NWS Daily Summary

Daily Weather History Graph

Daily Weather History Graph

Search for Another Location

Airport or City:

Trip Planner

Search our weather history database for the weather conditions in past years. The results will help you decide how hot, cold, wet, or windy it might be!

Date:

Astronomy

Nov. 08, 2012 Rise Set
Actual Time 6:14 AM CST 4:45 PM CST
Civil Twilight 5:47 AM CST 5:11 PM CST
Nautical Twilight 5:17 AM CST 5:42 PM CST
Astronomical Twilight 4:47 AM CST 6:11 PM CST
Moon 12:22 AM CST (11/8) 1:14 PM CST (11/8)
Length of Visible Light 11h 24m
Length of Day
10h 31m
Waning Crescent, 32% of the Moon is Illuminated
Nov 8
Waning Crescent
Nov 13
New
Nov 20
First Quarter
Nov 28
Full
Dec 6
Last Quarter

Hourly Weather History & Observations

Time (CST) Temp. Windchill Dew Point Humidity Pressure Visibility Wind Dir Wind Speed Gust Speed Precip Events Conditions
12:15 AM 39.2 °F 35.0 °F 35.6 °F 87% 30.13 in 5.0 mi NNW 5.8 mph - N/A   Clear
12:35 AM 37.4 °F 34.9 °F 35.6 °F 93% 30.13 in 5.0 mi NNW 3.5 mph - N/A   Clear
12:55 AM 37.4 °F - 35.6 °F 93% 30.14 in 5.0 mi Calm Calm - N/A   Clear
1:15 AM 37.4 °F - 35.6 °F 93% 30.14 in 4.0 mi Calm Calm - N/A   Clear
1:35 AM 37.4 °F - 35.6 °F 93% 30.15 in 4.0 mi Calm Calm - N/A   Clear
1:55 AM 37.4 °F - 33.8 °F 87% 30.15 in 4.0 mi Calm Calm - N/A   Clear
2:15 AM 35.6 °F - 33.8 °F 93% 30.16 in 4.0 mi Calm Calm - N/A   Clear
2:35 AM 35.6 °F - 33.8 °F 93% 30.16 in 3.0 mi Calm Calm - N/A   Clear
2:55 AM 35.6 °F 32.8 °F 33.8 °F 93% 30.16 in 3.0 mi NNW 3.5 mph - N/A   Clear
3:15 AM 35.6 °F - 33.8 °F 93% 30.17 in 4.0 mi Calm Calm - N/A   Clear
3:35 AM 35.6 °F - 32.0 °F 87% 30.17 in 2.0 mi Calm Calm - N/A   Clear
3:55 AM 33.8 °F - 32.0 °F 93% 30.18 in 2.0 mi Calm Calm - N/A   Clear
4:15 AM 33.8 °F - 32.0 °F 93% 30.18 in 4.0 mi Calm Calm - N/A   Clear
4:35 AM 33.8 °F - 32.0 °F 93% 30.19 in 4.0 mi Calm Calm - N/A   Clear
4:55 AM 33.8 °F - 32.0 °F 93% 30.19 in 2.5 mi Calm Calm - N/A   Clear
5:15 AM 32.0 °F - 32.0 °F 100% 30.20 in 4.0 mi Calm Calm - N/A   Clear
5:35 AM 33.8 °F - 32.0 °F 93% 30.21 in 1.0 mi Calm Calm - N/A   Mostly Cloudy
5:55 AM 33.8 °F 30.8 °F 32.0 °F 93% 30.21 in 0.8 mi NNW 3.5 mph - N/A   Overcast
6:15 AM 35.6 °F - 33.8 °F 93% 30.21 in 0.2 mi Calm Calm - N/A Fog Fog
6:35 AM 35.6 °F - 33.8 °F 93% 30.22 in 0.2 mi Calm Calm - N/A Fog Fog
6:55 AM 35.6 °F - 33.8 °F 93% 30.23 in 0.2 mi Calm Calm - N/A Fog Fog
7:15 AM 35.6 °F - 33.8 °F 93% 30.24 in 0.2 mi Calm Calm - N/A Fog Fog
7:35 AM 35.6 °F - 33.8 °F 93% 30.24 in 0.2 mi Calm Calm - N/A Fog Fog
7:55 AM 37.4 °F 34.9 °F 35.6 °F 93% 30.24 in 0.8 mi North 3.5 mph - N/A   Overcast
8:15 AM 39.2 °F 37.0 °F 35.6 °F 87% 30.24 in 2.0 mi NE 3.5 mph - N/A   Overcast
8:35 AM 41.0 °F 37.1 °F 37.4 °F 87% 30.25 in 3.0 mi NNE 5.8 mph - N/A   Overcast
8:55 AM 41.0 °F 38.0 °F 37.4 °F 87% 30.25 in 4.0 mi NE 4.6 mph - N/A   Overcast
9:15 AM 42.8 °F 40.1 °F 41.0 °F 93% 30.25 in 4.0 mi North 4.6 mph - N/A   Overcast
9:35 AM 42.8 °F 39.3 °F 37.4 °F 81% 30.25 in 4.0 mi North 5.8 mph - N/A   Haze
9:55 AM 44.6 °F 43.1 °F 37.4 °F 76% 30.25 in 5.0 mi NNE 3.5 mph - N/A   Haze
10:15 AM 46.4 °F 44.3 °F 37.4 °F 71% 30.25 in 5.0 mi NNW 4.6 mph - N/A   Haze
10:35 AM 48.2 °F - 37.4 °F 66% 30.24 in 7.0 mi NNW 5.8 mph - N/A   Clear
11:15 AM 50.0 °F - 35.6 °F 58% 30.23 in 7.0 mi NNW 8.1 mph - N/A   Clear
11:35 AM 51.8 °F - 35.6 °F 54% 30.23 in 10.0 mi North 6.9 mph - N/A   Clear
11:55 AM 51.8 °F - 35.6 °F 54% 30.23 in 10.0 mi NNW 4.6 mph - N/A   Clear
12:15 PM 51.8 °F - 33.8 °F 50% 30.21 in 10.0 mi NNW 4.6 mph - N/A   Clear
12:55 PM 53.6 °F - 33.8 °F 47% 30.20 in 10.0 mi WNW 4.6 mph - N/A   Clear
1:15 PM 53.6 °F - 32.0 °F 44% 30.20 in 10.0 mi NW 3.5 mph - N/A   Clear
1:35 PM 55.4 °F - 32.0 °F 41% 30.19 in 10.0 mi NW 4.6 mph - N/A   Clear
1:55 PM 55.4 °F - 32.0 °F 41% 30.19 in 10.0 mi NW 6.9 mph - N/A   Clear
2:15 PM 55.4 °F - 32.0 °F 41% 30.19 in 10.0 mi North 5.8 mph - N/A   Clear
2:35 PM 55.4 °F - 32.0 °F 41% 30.19 in 10.0 mi Calm Calm - N/A   Clear
2:55 PM 55.4 °F - 32.0 °F 41% 30.19 in 10.0 mi NNW 5.8 mph - N/A   Clear
3:15 PM 55.4 °F - 33.8 °F 44% 30.19 in 10.0 mi North 6.9 mph - N/A   Clear
3:35 PM 55.4 °F - 33.8 °F 44% 30.19 in 10.0 mi NW 4.6 mph - N/A   Clear
3:55 PM 53.6 °F - 33.8 °F 47% 30.19 in 10.0 mi NNW 3.5 mph - N/A   Clear
4:15 PM 53.6 °F - 33.8 °F 47% 30.19 in 10.0 mi WNW 3.5 mph - N/A   Clear
4:35 PM 51.8 °F - 33.8 °F 50% 30.19 in 10.0 mi WNW 3.5 mph - N/A   Clear
4:55 PM 50.0 °F - 35.6 °F 58% 30.19 in 10.0 mi Calm Calm - N/A   Clear
5:15 PM 48.2 °F - 35.6 °F 62% 30.19 in 10.0 mi Calm Calm - N/A   Clear
5:35 PM 44.6 °F - 37.4 °F 76% 30.20 in 10.0 mi Calm Calm - N/A   Clear
5:55 PM 44.6 °F - 37.4 °F 76% 30.20 in 10.0 mi Calm Calm - N/A   Clear
6:15 PM 42.8 °F - 35.6 °F 76% 30.20 in 10.0 mi Calm Calm - N/A   Clear
6:35 PM 41.0 °F - 37.4 °F 87% 30.20 in 7.0 mi Calm Calm - N/A   Clear
6:55 PM 41.0 °F - 37.4 °F 87% 30.20 in 7.0 mi Calm Calm - N/A   Clear
7:15 PM 41.0 °F - 37.4 °F 87% 30.20 in 7.0 mi Calm Calm - N/A   Clear
7:35 PM 41.0 °F - 35.6 °F 81% 30.21 in 7.0 mi Calm Calm - N/A   Clear
7:55 PM 37.4 °F - 33.8 °F 87% 30.21 in 7.0 mi Calm Calm - N/A   Clear
8:15 PM 37.4 °F - 35.6 °F 93% 30.21 in 5.0 mi Calm Calm - N/A   Clear
8:35 PM 37.4 °F - 33.8 °F 87% 30.21 in 7.0 mi Calm Calm - N/A   Clear
8:55 PM 37.4 °F - 35.6 °F 93% 30.21 in 4.0 mi Calm Calm - N/A   Clear
9:15 PM 37.4 °F - 33.8 °F 87% 30.21 in 4.0 mi Calm Calm - N/A   Clear
9:35 PM 35.6 °F - 33.8 °F 93% 30.21 in 4.0 mi Calm Calm - N/A   Clear
9:55 PM 35.6 °F - 33.8 °F 93% 30.20 in 4.0 mi Calm Calm - N/A   Clear
10:15 PM 35.6 °F - 33.8 °F 93% 30.20 in 4.0 mi Calm Calm - N/A   Clear
10:35 PM 35.6 °F - 32.0 °F 87% 30.20 in 5.0 mi Calm Calm - N/A   Clear
10:55 PM 33.8 °F - 32.0 °F 93% 30.20 in 1.0 mi Calm Calm - N/A   Mist
11:15 PM 33.8 °F - 32.0 °F 93% 30.20 in 4.0 mi Calm Calm - N/A   Clear
11:35 PM 33.8 °F - 32.0 °F 93% 30.21 in 7.0 mi Calm Calm - N/A   Clear
11:55 PM 33.8 °F - 32.0 °F 93% 30.21 in 5.0 mi Calm Calm - N/A   Clear